Lapse_Rate
2.1 2.1 1.7 1.3 1.0 0.7 0.5 0.4 0.2 -0.2 -0.4 -0.4 -0.3 -0.2 0.1 0.6 1.7 4.0 3.3 2.8 2.7 2.4 2.3 4.6 7.1 7.8 7.2 7.5 7.7 7.7 6.5 6.5 6.5 6.5 6.5 6.5 6.5 6.7 7.0 6.3 7.0 7.4 7.3 6.8 5.7
1.8 1.8 1.5 1.3 1.0 0.8 0.6 0.3 -0.1 -0.3 -0.5 -0.5 -0.3 -0.1 0.1 0.6 6.9 4.2 3.3 3.1 2.9 2.5 4.1 5.9 7.3 6.6 6.5 7.2 6.5 6.0 6.5 6.5 6.3 6.2 6.5 6.4 6.6 5.6 6.5 5.6 5.8 6.2 5.9 5.6 5.8
1.7 1.9 1.8 1.5 1.1 0.8 0.4 -0.0 -0.2 -0.4 -0.6 -0.6 -0.2 0.0 0.1 0.8 6.8 5.8 3.6 3.0 2.9 2.8 4.5 5.0 6.2 7.1 6.9 7.2 6.4 6.1 6.5 6.5 6.3 6.5 6.6 6.3 6.1 6.5 6.5 6.5 6.1 5.5 5.6 5.4 6.3
2.1 2.1 1.8 1.4 1.3 1.0 0.6 0.3 0.0 -0.2 -0.6 -0.4 0.0 0.3 0.3 4.1 6.5 4.7 3.5 3.4 3.6 3.8 4.9 6.5 6.8 6.8 6.5 6.5 7.1 6.5 6.6 6.7 6.8 6.6 6.7 6.3 6.3 6.0 5.7 5.4 6.7 7.1 7.0 6.7 6.4
2.3 2.1 1.6 1.3 1.2 0.8 0.4 0.1 0.0 -0.2 -0.4 -0.1 0.6 0.6 2.8 6.7 5.3 4.7 3.7 4.5 5.2 5.5 5.5 6.2 6.8 6.4 6.5 6.4 6.7 6.5 6.6 7.0 6.9 6.9 6.7 6.7 6.0 6.2 5.3 6.0 5.9 5.6 6.9 6.9 6.2
2.1 1.7 1.3 1.2 0.9 0.6 0.2 -0.0 -0.1 -0.4 0.1 0.6 0.7 0.8 4.7 6.6 4.3 4.2 3.8 4.7 4.5 5.8 5.5 6.1 6.5 6.1 6.6 6.5 6.4 6.8 6.7 6.7 6.9 6.9 6.9 6.6 6.3 6.5 6.1 6.8 7.3 7.0 6.6 6.7 6.3
2.3 2.0 1.7 1.2 0.8 0.5 0.2 -0.2 -0.4 -0.4 0.5 1.1 1.2 3.8 6.9 4.7 5.0 4.5 4.9 4.3 4.3 4.3 5.6 4.5 4.9 6.3 6.4 6.4 7.1 6.9 6.5 6.5 6.4 6.7 6.5 6.2 6.5 6.5 6.0 7.2 6.7 6.6 6.8 6.9 6.9
2.7 2.4 1.9 1.3 0.8 0.4 0.3 -0.3 -0.6 0.2 0.9 1.1 1.8 5.1 6.4 5.0 4.5 5.2 5.2 5.6 5.2 4.8 4.6 4.4 4.7 6.4 6.6 6.3 6.5 6.5 6.5 6.5 6.5 6.4 5.9 6.3 6.5 6.4 5.7 6.6 6.5 6.0 5.8 5.7 4.8
3.0 2.6 2.1 1.5 1.1 0.5 0.3 -0.1 0.2 1.0 1.8 1.9 4.1 6.2 6.4 4.2 5.4 5.4 5.1 5.6 5.1 5.2 5.2 5.6 5.2 6.5 6.4 6.5 6.5 6.5 6.5 6.5 6.5 6.5 6.5 6.5 6.5 6.4 5.4 6.2 6.2 6.2 6.7 5.9 5.3
3.3 2.9 2.5 2.0 1.6 1.0 0.5 1.3 2.1 1.4 2.5 5.8 6.6 6.7 5.8 6.9 5.5 4.7 5.6 4.8 6.2 6.3 5.7 5.7 5.9 6.5 6.5 6.5 6.5 6.5 6.5 6.5 6.5 6.5 6.5 6.5 6.5 6.5 5.5 5.6 6.6 5.9 6.2 5.9 6.4
3.5 3.1 2.8 2.4 2.0 1.7 1.1 4.7 5.5 6.1 6.1 5.5 6.1 6.5 7.1 5.7 4.9 5.3 5.3 5.5 6.4 6.3 6.5 6.6 6.5 6.5 6.5 6.5 6.5 6.5 6.5 6.5 6.5 6.5 6.5 6.5 6.5 6.5 5.6 6.0 6.1 6.4 6.0 5.3 6.6
3.7 3.4 3.0 2.6 2.5 2.2 3.7 5.8 5.0 4.7 5.9 5.4 6.3 5.8 6.2 4.8 6.5 6.5 5.7 6.2 6.6 6.5 6.5 6.5 6.5 6.5 6.5 6.5 6.5 6.5 6.5 6.5 6.5 6.5 6.5 6.5 6.5 6.5 6.2 6.1 5.5 6.3 6.4 6.8 6.8
3.8 3.5 3.0 2.8 2.7 4.3 5.7 4.8 4.5 5.2 6.5 6.9 7.6 7.5 7.0 5.5 6.9 6.6 6.0 6.7 6.3 6.5 6.5 6.5 6.5 6.4 6.5 6.5 6.5 6.5 6.5 6.5 6.5 6.5 6.5 6.5 6.5 6.5 6.5 6.0 5.8 6.2 6.4 6.8 6.3
3.9 3.7 3.3 3.1 4.1 6.2 6.5 4.7 4.4 5.2 6.5 6.5 6.7 6.8 6.5 6.4 6.6 6.0 5.9 4.9 6.6 6.5 6.5 6.5 6.4 6.5 6.5 6.5 6.5 6.5 6.5 6.5 6.5 6.5 6.5 6.5 6.5 6.5 6.5 6.5 6.4 5.5 5.2 5.9 6.5
4.4 4.3 3.7 3.5 4.5 6.5 5.5 4.9 4.0 3.9 6.5 6.5 6.6 6.1 7.2 6.8 6.9 6.4 5.8 6.2 6.5 6.5 6.5 6.5 6.5 6.5 6.5 6.5 6.5 6.5 6.5 6.5 6.5 6.5 6.5 6.5 6.5 6.5 6.5 6.5 6.5 5.5 5.5 5.9 6.4
3.8 4.4 4.2 4.5 5.3 6.6 6.0 5.3 4.4 6.5 6.5 6.5 6.6 6.5 6.5 6.7 6.8 6.8 6.9 6.3 6.7 6.5 6.5 6.5 6.6 6.5 6.5 6.5 6.5 6.5 6.5 6.5 6.5 6.5 6.5 6.5 6.5 6.5 6.5 6.5 6.5 5.7 5.4 5.9 6.8
2.2 3.2 4.0 5.8 7.0 6.5 5.9 5.2 6.5 6.5 6.5 6.5 6.5 6.5 6.5 6.5 6.5 6.5 6.5 6.5 6.5 6.5 6.5 6.5 6.5 6.5 6.6 6.5 6.5 6.5 6.5 6.5 6.5 6.5 6.5 6.5 6.5 6.5 6.5 6.5 6.5 6.1 5.1 5.6 6.6
2.3 3.2 4.1 5.0 6.3 6.2 6.3 6.5 6.5 6.5 6.5 6.5 6.5 6.5 6.5 6.5 6.5 6.5 6.5 6.5 6.5 6.5 6.5 6.5 6.5 6.5 6.5 6.5 6.5 6.5 6.5 6.5 6.5 6.5 6.5 6.5 6.5 6.5 6.5 5.5 5.1 5.6 5.9 6.0 5.8
4.6 5.4 5.5 4.6 5.0 5.3 6.1 6.5 6.5 6.5 6.5 6.5 6.5 6.5 6.5 6.5 6.5 6.5 6.5 6.5 6.5 6.5 6.5 6.5 6.5 6.5 6.5 6.5 6.5 6.5 6.5 6.5 6.5 6.5 6.5 6.5 6.5 6.5 6.5 6.5 5.9 5.6 5.6 5.2 5.4
4.4 4.6 6.0 5.1 5.3 5.2 6.4 6.5 6.5 6.4 6.4 6.5 6.5 6.5 6.5 6.5 6.5 6.5 6.5 6.5 6.5 6.4 6.1 6.5 6.5 6.5 6.5 6.6 6.5 6.5 6.5 6.5 6.5 6.5 6.5 6.5 6.5 6.5 6.5 6.5 6.5 6.2 5.1 5.1 5.3
5.0 6.0 4.0 3.0 5.3 5.5 6.5 6.5 6.5 6.8 6.6 6.5 6.5 6.5 6.5 6.5 6.5 6.5 6.5 6.5 6.5 6.5 6.0 6.5 6.5 6.5 6.5 6.5 6.5 6.5 6.5 6.5 6.5 6.5 6.5 6.5 6.5 6.5 6.5 6.5 6.5 6.0 5.2 4.7 4.6
6.1 6.5 4.1 3.1 6.3 6.3 6.5 6.5 6.2 6.5 6.8 6.5 6.4 6.5 6.5 6.5 6.5 6.5 6.5 6.5 5.4 5.8 6.5 6.5 6.5 6.5 6.5 6.5 6.5 6.5 6.5 6.5 6.5 6.5 6.5 6.5 6.5 6.5 6.5 6.4 5.6 5.3 5.2 5.4 5.5
6.5 6.1 5.0 5.3 6.5 6.5 6.5 6.5 6.4 6.5 6.5 6.5 6.5 6.5 6.5 6.5 6.5 6.5 6.5 6.0 5.3 6.4 6.5 6.5 6.5 6.5 6.5 6.5 6.5 6.5 6.5 6.5 6.5 6.5 6.5 6.5 6.5 6.5 6.1 6.1 5.4 5.0 4.8 5.1 5.5
6.3 6.5 6.4 6.0 6.4 6.6 6.5 6.5 6.5 6.6 6.6 6.7 6.5 6.4 6.5 6.5 6.5 6.5 6.5 6.5 5.4 6.2 4.5 6.1 6.5 6.5 6.5 6.5 6.5 6.5 6.5 6.5 6.5 6.5 6.5 6.5 6.5 6.5 6.5 6.5 6.0 5.9 4.9 5.0 4.9
6.2 6.6 6.4 6.5 6.6 6.6 6.6 6.5 6.5 6.5 6.7 6.8 6.5 6.5 6.5 6.5 6.5 6.5 6.5 6.5 6.5 6.7 6.4 6.5 6.5 6.5 6.5 6.5 6.5 6.5 6.5 6.5 6.5 6.5 6.5 6.5 6.5 6.5 6.5 6.5 5.6 5.6 5.6 6.1 6.1
6.8 6.7 6.5 6.8 6.6 6.6 6.5 6.5 6.5 6.5 6.5 6.5 6.5 6.5 6.5 6.5 6.5 6.5 6.5 6.5 6.5 6.5 6.5 6.5 6.5 6.5 6.5 6.5 6.5 6.5 6.5 6.5 6.5 6.5 6.5 6.5 6.5 6.5 6.1 6.2 6.1 5.7 6.4 6.4 5.9
6.5 6.6 6.7 6.7 6.6 6.5 6.5 6.5 6.5 6.6 6.7 6.9 6.6 6.5 6.5 6.5 6.8 6.8 6.8 6.8 6.7 6.5 6.5 6.5 6.5 6.5 6.5 6.5 6.5 6.5 6.5 6.5 6.5 6.5 6.5 6.5 6.5 6.5 6.5 6.4 6.0 6.0 6.0 5.9 6.2
Wind_Speed
17 18 19 20 21 21 22 22 20 18 15 10 8 9 10 12 11 1 6 7 9 18 17 11 6 1 6 2 2 2 2 3 4 4 4 4 3 5 3 5 1 3 3 6 8
17 19 20 21 21 21 22 22 22 20 17 12 7 7 9 10 1 8 4 11 11 12 7 8 6 8 2 1 1 2 2 7 7 7 7 5 3 8 4 6 6 6 7 8 5
17 17 19 20 21 22 22 22 21 20 17 12 8 7 7 6 3 3 12 12 10 9 5 4 6 4 1 1 5 6 4 5 7 6 6 6 6 4 2 5 3 6 6 9 6
15 16 18 19 20 21 21 21 19 18 15 13 10 9 8 3 1 3 14 12 10 8 5 4 5 3 2 3 1 4 4 3 2 3 5 6 8 7 7 8 4 3 3 5 6
14 16 19 21 22 22 22 22 21 17 13 12 12 11 4 3 2 6 13 10 4 4 3 3 3 4 3 4 0 3 2 1 4 3 4 6 7 7 9 7 6 6 4 5 7
16 19 20 21 23 25 25 24 22 13 9 10 11 11 4 3 2 6 7 5 7 5 6 6 5 3 4 4 3 2 0 2 2 2 2 3 5 4 1 4 3 5 6 6 6
15 18 20 21 23 25 25 24 22 9 5 8 10 4 1 3 3 6 6 1 3 4 2 3 5 3 4 4 2 0 3 5 4 1 1 5 4 7 5 4 5 6 5 5 4
16 18 20 23 25 28 29 24 21 10 5 4 6 4 2 2 5 4 7 3 1 1 1 0 3 1 3 2 4 3 1 1 3 4 2 2 5 6 8 5 4 8 7 5 9
16 19 21 25 27 30 32 26 13 8 8 6 2 1 3 2 2 3 3 5 4 2 1 1 3 2 2 3 2 5 2 2 1 3 3 2 7 2 8 4 4 4 3 6 7
16 18 22 24 28 31 36 28 5 7 7 5 3 1 2 2 2 3 1 6 4 2 2 3 2 2 2 1 1 3 3 3 5 1 3 6 15 10 6 5 1 5 5 6 5
15 17 20 24 29 33 18 4 4 2 5 3 3 3 1 4 2 5 4 5 4 5 4 3 3 3 9 4 3 1 3 6 8 4 4 7 12 17 8 2 4 2 3 6 5
13 15 19 23 28 32 13 4 3 2 7 4 2 3 0 1 2 3 1 2 4 4 4 1 5 6 7 5 2 3 6 6 2 4 1 8 17 19 11 5 6 4 2 1 3
10 12 16 22 27 8 4 4 1 3 4 3 1 2 3 2 2 3 2 2 5 3 4 2 3 7 3 4 3 5 6 3 2 7 7 6 8 2 2 5 6 6 6 3 5
9 9 12 21 4 5 2 3 3 4 3 6 3 2 3 2 3 2 1 3 3 4 0 3 6 4 4 3 3 3 4 5 3 4 3 2 5 5 6 7 7 7 6 5 5
11 8 6 4 7 4 2 1 1 2 5 4 3 2 2 3 2 2 1 2 3 2 1 3 6 4 5 4 5 2 2 1 3 2 5 3 2 7 6 7 7 7 6 6 5
9 8 3 4 3 4 1 3 2 2 8 2 3 3 4 5 5 4 3 2 2 3 4 1 1 2 1 3 2 6 3 5 3 1 2 7 5 5 5 4 7 7 7 7 4
9 6 4 4 1 4 1 2 3 5 3 4 3 3 5 5 5 7 6 6 5 3 5 4 4 2 1 4 2 4 2 2 3 2 5 4 2 8 2 3 7 8 8 7 5
14 2 6 9 5 3 0 0 10 6 8 2 1 3 4 7 6 8 5 5 11 6 3 5 5 9 7 3 6 7 4 4 6 3 2 5 7 6 6 7 8 7 6 6 6
8 2 3 5 12 3 2 9 5 9 8 3 1 5 6 6 2 6 7 4 7 15 10 6 6 3 5 2 3 2 3 4 2 3 2 5 6 2 4 6 6 7 8 7 7
1 2 2 8 14 3 7 20 11 15 12 8 9 8 6 7 6 8 9 6 5 9 6 3 4 5 4 3 2 2 2 4 0 3 6 5 6 5 7 8 7 7 8 7 7
1 2 3 9 7 4 14 10 13 19 13 12 15 16 11 9 10 7 7 3 9 6 6 4 4 2 6 8 11 4 4 5 3 4 5 3 5 3 6 7 8 7 7 7 8
0 3 2 4 7 4 16 6 14 10 19 25 19 21 21 20 21 15 11 9 8 9 8 6 4 5 13 7 9 9 8 9 4 6 5 3 9 6 9 7 7 8 9 8 7
1 2 2 2 4 12 5 14 15 18 19 14 18 24 24 25 22 23 24 13 9 12 11 9 4 4 3 3 1 6 9 11 13 3 8 4 4 3 8 7 7 7 7 6 6
1 2 2 1 2 3 4 2 5 4 1 4 5 7 15 21 23 16 21 3 7 10 8 15 10 11 18 6 5 6 11 18 15 8 13 21 15 5 7 7 4 3 6 7 8
1 2 1 1 1 2 0 2 3 3 5 6 3 8 6 8 18 21 20 11 4 7 3 3 17 19 25 16 1 5 9 18 20 21 15 17 20 11 8 7 8 8 4 2 4
1 2 2 1 2 2 3 1 2 1 2 2 2 1 2 2 3 5 5 3 2 5 2 4 4 4 11 6 7 10 12 12 13 16 18 17 24 5 13 14 15 8 2 2 2
2 1 2 3 2 2 4 3 2 0 3 3 4 4 3 6 8 6 5 3 2 3 2 3 3 3 3 5 3 8 14 19 17 17 14 17 21 10 14 14 4 4 2 1 3
Wind_Direction
11 7 6 4 2 360 357 355 352 351 349 347 348 347 340 327 302 255 48 326 316 319 317 267 227 193 240 184 277 273 303 73 48 17 95 110 281 113 79 311 195 173 3 91 109
12 6 4 2 359 355 352 349 347 345 343 339 339 346 342 332 222 67 347 328 320 325 328 347 16 317 146 83 21 3 20 36 21 31 12 15 5 336 345 301 247 206 136 119 134
10 2 359 358 356 352 349 346 341 340 339 332 330 340 340 325 257 49 354 335 324 315 285 294 283 270 99 328 17 359 39 356 45 33 354 335 307 331 290 281 341 25 40 151 170
4 357 353 352 350 345 342 339 336 338 339 328 325 331 327 237 273 37 348 328 314 285 253 256 239 220 54 74 37 140 82 9 42 56 343 319 342 308 273 248 22 90 15 340 171
356 351 349 348 342 337 335 335 336 338 338 329 323 332 291 182 102 357 342 327 304 282 16 354 352 333 106 93 110 79 65 187 109 284 282 317 267 250 281 304 28 42 10 255 272
352 350 347 342 338 336 334 333 333 332 333 328 325 331 257 252 332 353 330 337 359 345 35 5 35 341 85 64 4 40 94 339 134 240 257 294 285 334 90 112 273 227 228 240 217
348 345 341 339 336 332 330 330 329 316 323 331 325 318 337 49 336 336 317 42 321 356 78 51 342 315 316 131 126 141 237 178 179 285 223 282 281 220 230 118 263 225 209 183 226
340 339 338 336 335 331 328 325 319 306 297 300 311 284 42 59 337 301 320 199 207 128 53 144 307 11 337 139 201 234 237 307 112 331 221 325 284 188 137 202 300 306 320 244 220
336 338 338 336 334 329 323 320 300 283 266 272 243 222 110 149 266 3 317 312 289 205 168 253 271 10 151 236 160 215 282 9 287 122 332 255 286 154 183 192 7 319 21 23 351
333 337 335 334 333 330 325 313 253 290 235 235 258 197 182 21 357 340 272 298 284 211 204 203 220 217 245 5 167 1 334 341 301 65 5 279 266 265 305 107 349 277 79 91 46
331 333 332 333 334 332 337 320 333 201 16 291 343 284 80 346 134 191 57 302 243 242 198 160 165 173 114 84 93 117 260 270 275 70 2 267 283 285 281 250 184 210 27 68 57
321 327 332 332 330 328 315 39 36 325 308 164 244 249 167 13 268 200 159 265 213 218 153 149 209 134 116 124 146 230 262 269 334 86 302 284 289 283 267 218 164 102 9 32 59
308 322 331 328 324 322 24 42 314 274 263 171 162 292 91 203 309 95 333 23 288 230 243 255 68 120 165 161 222 258 258 295 332 340 265 282 282 170 35 102 132 208 200 157 85
290 311 331 330 318 337 52 87 330 315 312 275 193 126 174 254 235 76 68 108 248 275 248 310 119 169 169 241 227 239 49 57 306 3 275 60 278 261 163 200 199 207 178 100 64
272 291 320 5 311 318 41 61 314 249 324 257 150 93 140 227 104 146 132 196 292 163 147 263 157 189 225 230 159 191 112 79 358 267 27 239 105 270 156 207 198 198 115 95 67
306 277 271 249 210 252 17 314 263 324 250 250 127 179 191 189 175 134 192 202 337 303 207 178 55 252 21 89 27 130 205 161 127 158 342 212 164 263 191 218 144 147 143 105 83
8 306 212 242 156 47 18 258 305 220 234 201 229 185 239 177 205 185 172 177 189 129 224 171 187 92 157 159 166 221 246 350 334 337 230 127 230 248 148 65 137 161 143 128 126
344 284 235 228 254 134 267 108 237 213 245 60 117 192 229 183 218 189 221 222 213 246 331 188 291 170 175 243 194 196 200 170 232 222 252 156 236 243 141 134 144 128 137 152 139
349 205 233 211 223 128 162 220 225 203 263 161 162 231 212 221 205 173 218 237 217 181 187 193 221 91 143 49 40 197 226 326 32 306 35 229 258 44 123 126 149 171 179 173 156
33 279 223 178 181 148 232 233 223 227 278 304 235 214 232 181 177 187 187 199 240 180 208 296 281 188 132 107 145 180 191 84 312 254 254 261 253 236 202 202 194 199 185 181 162
278 240 1 323 148 204 228 231 239 238 257 241 255 262 258 263 192 208 248 196 170 192 164 172 202 137 125 207 175 153 217 217 169 186 203 279 253 325 150 157 172 204 199 195 183
61 239 4 340 199 225 231 192 224 254 228 241 256 255 250 256 259 255 239 195 159 141 173 213 223 215 215 194 209 203 198 177 180 220 221 162 257 160 124 132 146 181 191 188 196
266 307 358 72 239 225 232 237 237 247 248 234 236 236 243 247 254 244 248 232 185 166 178 164 229 277 258 32 204 215 205 217 233 292 207 179 259 97 131 154 187 200 207 206 195
163 273 296 235 74 346 341 310 222 23 160 351 317 270 230 239 237 250 256 243 346 237 165 175 219 206 240 235 120 189 205 212 211 219 231 234 247 173 174 193 207 251 216 234 215
151 219 30 271 244 224 300 323 317 326 3 26 4 20 356 257 239 245 257 258 68 4 11 232 225 235 250 258 267 213 201 212 215 229 227 248 247 246 264 314 302 303 281 65 252
268 231 167 274 213 182 157 224 266 259 238 269 228 285 359 305 344 348 352 11 28 345 318 26 256 219 265 248 263 258 242 235 232 233 241 258 264 292 288 296 295 276 38 259 124
151 256 265 182 198 200 198 186 274 232 187 277 358 312 261 268 244 228 209 221 225 332 291 211 200 188 246 166 194 262 237 231 231 230 216 235 249 260 263 258 253 146 143 139 141